N1OTX Weather Reports


time (UTC)temp
C
wind
direction
speed
KPH
gust
KPH
rain 1hr
cm
rain 24hr
cm
rain mn
cm
humidity
%
barometer
mb
20260507175528 17 326 4.8 17.7 0.00 0.48 0.25 35 1006.2
20260507175028 17 356 3.2 6.4 0.00 0.48 0.25 37 1006.3
20260507174527 17 18 1.6 9.7 0.00 0.48 0.25 34 1006.2
20260507174028 17 354 3.2 9.7 0.00 0.48 0.25 35 1006.2
20260507173527 17 330 3.2 9.7 0.00 0.48 0.25 34 1006.1
20260507173047 17 326 3.2 6.4 0.00 0.48 0.25 36 1006.2
20260507172547 17 314 3.2 9.7 0.00 0.48 0.25 37 1006.1
20260507172027 17 330 3.2 9.7 0.00 0.48 0.25 37 1006.3
20260507171529 17 18 3.2 9.7 0.00 0.48 0.25 36 1006.3
20260507171029 17 8 3.2 9.7 0.00 0.48 0.25 38 1006.4
20260507170529 17 2 3.2 9.7 0.00 0.48 0.25 37 1006.5
20260507170028 17 348 3.2 9.7 0.00 0.48 0.25 39 1006.5
20260507165528 16 318 3.2 9.7 0.00 0.48 0.25 40 1006.6
20260507165028 16 327 3.2 9.7 0.00 0.48 0.25 43 1006.5
20260507164528 16 8 3.2 11.3 0.00 0.48 0.25 44 1006.5
20260507164028 16 358 4.8 11.3 0.00 0.48 0.25 42 1006.6
20260507163528 16 9 3.2 6.4 0.00 0.48 0.25 45 1006.8
20260507163028 16 12 3.2 6.4 0.00 0.48 0.25 44 1006.9
20260507162548 16 354 3.2 9.7 0.00 0.48 0.25 46 1006.8
20260507162027 16 9 4.8 9.7 0.00 0.48 0.25 46 1006.8
20260507161527 16 11 3.2 6.4 0.00 0.48 0.25 51 1006.9
20260507161027 16 349 3.2 6.4 0.00 0.48 0.25 49 1006.9
20260507160607 16 296 4.8 22.5 0.00 0.48 0.25 52 1007.0
20260507160027 15 17 1.6 6.4 0.00 0.48 0.25 51 1007.1
20260507155529 16 328 3.2 6.4 0.00 0.48 0.25 52 1007.1
20260507155029 16 344 3.2 6.4 0.00 0.48 0.25 53 1007.0
20260507154528 15 34 3.2 11.3 0.00 0.48 0.25 54 1007.1
20260507154028 15 11 4.8 11.3 0.00 0.48 0.25 54 1007.1
20260507153548 14 25 3.2 6.4 0.00 0.48 0.25 57 1007.2
20260507153028 14 42 1.6 4.8 0.00 0.48 0.25 56 1007.2
20260507152529 15 24 3.2 9.7 0.00 0.48 0.25 55 1007.2
20260507152029 15 20 3.2 9.7 0.00 0.48 0.25 57 1007.3
20260507151548 14 359 1.6 6.4 0.00 0.48 0.25 58 1007.4
20260507151033 14 28 1.6 4.8 0.00 0.48 0.25 56 1007.4
20260507150528 15 17 3.2 9.7 0.00 0.48 0.25 55 1007.4
20260507150028 15 29 3.2 6.4 0.00 0.48 0.25 55 1007.5
20260507145529 15 25 1.6 4.8 0.00 0.48 0.25 54 1007.6
20260507145033 15 301 3.2 9.7 0.00 0.48 0.25 59 1007.6
20260507144528 14 16 1.6 4.8 0.00 0.48 0.25 58 1007.7
20260507144028 13 20 1.6 4.8 0.00 0.48 0.25 59 1007.8
20260507143528 14 12 3.2 6.4 0.00 0.48 0.25 57 1007.8
20260507143028 14 20 3.2 12.9 0.00 0.48 0.25 59 1007.8
20260507142528 14 47 3.2 12.9 0.00 0.48 0.25 57 1007.9
20260507142028 14 39 1.6 4.8 0.00 0.48 0.25 56 1007.9
20260507141548 14 23 1.6 3.2 0.00 0.48 0.25 60 1007.9
20260507141027 14 5 1.6 4.8 0.00 0.48 0.25 58 1007.9
20260507140528 13 321 1.6 4.8 0.00 0.48 0.25 58 1007.8
20260507140028 13 22 1.6 4.8 0.00 0.48 0.25 59 1007.8
20260507135527 13 36 1.6 4.8 0.00 0.48 0.25 58 1007.8
20260507135027 13 25 3.2 4.8 0.00 0.48 0.25 59 1007.7
20260507134527 13 19 1.6 4.8 0.00 0.48 0.25 60 1007.8
20260507134027 13 348 3.2 4.8 0.00 0.48 0.25 61 1007.8
20260507133527 13 359 3.2 9.7 0.00 0.48 0.25 61 1007.9
20260507133029 12 324 3.2 6.4 0.00 0.48 0.25 62 1007.9
20260507132529 12 348 3.2 6.4 0.00 0.48 0.25 62 1008.0
20260507132028 12 22 1.6 4.8 0.00 0.48 0.25 63 1008.0
20260507131528 12 321 3.2 6.4 0.00 0.48 0.25 68 1008.1
20260507131029 12 8 3.2 4.8 0.00 0.48 0.25 70 1008.1
20260507130528 12 33 1.6 4.8 0.00 0.48 0.25 74 1008.0
20260507130028 12 20 1.6 4.8 0.00 0.48 0.25 76 1008.1
20260507125528 12 14 1.6 4.8 0.00 0.48 0.25 80 1008.1
20260507125108 11 325 1.6 3.2 0.00 0.48 0.25 83 1008.3
20260507124527 11 312 1.6 3.2 0.00 0.48 0.25 85 1008.3
20260507124048 11 358 1.6 3.2 0.00 0.48 0.25 87 1008.3
20260507123527 10 353 1.6 4.8 0.00 0.48 0.25 87 1008.4
20260507123027 10 353 0.0 3.2 0.00 0.48 0.25 88 1008.2
20260507122527 10 353 0.0 3.2 0.00 0.48 0.25 88 1008.2
20260507122027 10 353 1.6 3.2 0.00 0.48 0.25 90 1008.2
20260507121529 10 329 0.0 1.6 0.00 0.48 0.25 90 1008.3
20260507121049 10 27 0.0 3.2 0.00 0.48 0.25 91 1008.2
20260507120528 9 27 0.0 3.2 0.00 0.48 0.25 92 1008.1
20260507120028 9 26 0.0 3.2 0.00 0.48 0.25 93 1008.1
20260507115528 9 0.0 0.0 0.00 0.48 0.25 94 1008.1
20260507115028 9 293 0.0 1.6 0.00 0.48 0.25 95 1008.1
20260507114548 9 0.0 1.6 0.00 0.48 0.25 95 1008.1
20260507114028 8 293 0.0 1.6 0.00 0.48 0.25 95 1008.0
20260507113528 8 0.0 1.6 0.00 0.48 0.25 96 1008.0
20260507113027 8 282 0.0 1.6 0.00 0.48 0.25 97 1008.1
20260507112528 8 0.0 0.0 0.00 0.48 0.25 97 1008.1
20260507112027 8 0.0 0.0 0.00 0.48 0.25 97 1008.0
20260507111528 8 0.0 0.0 0.00 0.48 0.25 97 1007.9
20260507111047 8 0.0 0.0 0.00 0.48 0.25 97 1008.0
20260507110527 8 0.0 0.0 0.00 0.48 0.25 97 1007.8
20260507110027 8 0.0 0.0 0.00 0.48 0.25 97 1007.9
20260507105527 8 0.0 0.0 0.00 0.48 0.25 97 1008.0
20260507105029 8 0.0 0.0 0.03 0.48 0.25 97 1008.1
20260507104528 8 0.0 0.0 0.03 0.48 0.25 97 1008.2
20260507104028 8 233 0.0 1.6 0.05 0.48 0.25 96 1008.2
20260507103528 8 0.0 1.6 0.05 0.48 0.25 96 1008.0
20260507103028 8 0.0 0.0 0.05 0.48 0.25 96 1007.7
20260507102548 8 0.0 1.6 0.05 0.48 0.25 96 1007.6
20260507102108 8 0.0 0.0 0.05 0.48 0.25 96 1007.4
20260507101528 8 0.0 0.0 0.10 0.48 0.25 96 1007.2
20260507101048 8 0.0 0.0 0.13 0.48 0.25 96 1007.3
20260507100528 8 37 0.0 1.6 0.13 0.46 0.23 96 1007.4
20260507100028 8 0.0 0.0 0.13 0.46 0.23 96 1007.3
20260507095528 8 0.0 0.0 0.13 0.46 0.23 95 1007.3
20260507095027 8 0.0 0.0 0.15 0.46 0.23 95 1007.2
20260507094527 8 37 0.0 1.6 0.13 0.43 0.20 96 1007.2
20260507094027 9 52 0.0 3.2 0.13 0.43 0.20 95 1007.1
20260507093527 9 94 0.0 3.2 0.13 0.43 0.20 95 1007.3
20260507093029 9 136 0.0 1.6 0.13 0.43 0.20 95 1007.5
20260507092527 9 137 0.0 1.6 0.13 0.43 0.20 96 1007.4
20260507092029 9 0.0 1.6 0.13 0.43 0.20 95 1007.2
20260507091528 9 136 0.0 1.6 0.10 0.38 0.15 95 1007.3
20260507091028 10 136 0.0 1.6 0.05 0.36 0.13 95 1007.4
20260507090528 10 171 0.0 3.2 0.05 0.33 0.10 95 1007.6
20260507090028 10 230 0.0 1.6 0.05 0.33 0.10 95 1007.6
20260507085528 10 0.0 1.6 0.05 0.33 0.10 95 1007.5
20260507085048 10 230 0.0 1.6 0.03 0.30 0.08 94 1007.4
20260507084528 10 229 0.0 1.6 0.03 0.30 0.08 95 1007.5
20260507084048 10 0.0 1.6 0.05 0.30 0.08 95 1007.4
20260507083527 10 229 0.0 1.6 0.05 0.30 0.08 95 1007.3
20260507083027 10 0.0 0.0 0.05 0.30 0.08 95 1007.2
20260507082527 10 0.0 0.0 0.05 0.30 0.08 94 1007.1
20260507082047 10 230 0.0 1.6 0.05 0.30 0.08 94 1007.0
20260507081527 10 223 0.0 3.2 0.05 0.28 0.05 94 1006.8
20260507081027 10 0.0 0.0 0.05 0.28 0.05 92 1006.9
20260507080526 10 326 0.0 1.6 0.05 0.28 0.05 92 1007.3
20260507080029 11 326 0.0 4.8 0.05 0.28 0.05 91 1007.1
20260507075528 11 335 1.6 4.8 0.05 0.28 0.05 91 1007.3
20260507075028 11 90 1.6 4.8 0.05 0.28 0.05 91 1007.1
20260507074528 11 13 1.6 3.2 0.05 0.28 0.05 90 1006.9
20260507074028 12 18 0.0 3.2 0.03 0.25 0.03 90 1007.0
20260507073528 12 18 0.0 1.6 0.00 0.23 0.00 90 1007.2
20260507073028 12 18 0.0 1.6 0.00 0.23 0.00 90 1006.8
20260507072527 12 20 0.0 3.2 0.00 0.23 0.00 90 1006.4
20260507072027 12 26 1.6 3.2 0.00 0.23 0.00 90 1006.3
20260507071527 12 30 1.6 1.6 0.00 0.23 0.00 90 1006.3
20260507071047 12 30 0.0 1.6 0.00 0.23 0.00 90 1006.3
20260507070527 12 30 0.0 1.6 0.00 0.23 0.00 90 1006.5
20260507070027 12 30 0.0 1.6 0.00 0.23 0.00 90 1006.4
20260507065527 12 30 0.0 1.6 0.00 0.23 0.00 90 1006.2
20260507065027 12 30 0.0 1.6 0.00 0.23 0.00 90 1006.5
20260507064529 12 30 0.0 3.2 0.00 0.23 0.00 90 1006.2
20260507064028 12 30 0.0 3.2 0.00 0.23 0.00 90 1006.3
20260507063528 12 31 1.6 4.8 0.00 0.23 0.00 90 1006.3
20260507063028 12 181 0.0 3.2 0.00 0.23 0.00 91 1006.4
20260507062528 12 20 0.0 4.8 0.00 0.23 0.00 90 1006.5
20260507062048 12 10 1.6 4.8 0.00 0.23 0.00 90 1006.4
20260507061528 12 43 1.6 1.6 0.00 0.23 0.00 90 1006.2
20260507061027 12 44 0.0 1.6 0.00 0.23 0.00 90 1006.3
20260507060527 12 44 0.0 3.2 0.00 0.23 0.00 89 1006.4
20260507060027 12 48 0.0 3.2 0.00 0.23 0.00 90 1006.4
20260507055527 12 71 0.0 1.6 0.00 0.23 0.00 89 1006.6
20260507055027 13 72 0.0 3.2 0.00 0.23 0.00 90 1006.6
20260507054527 13 72 0.0 1.6 0.00 0.23 0.00 90 1006.5
20260507054027 13 52 1.6 4.8 0.00 0.23 0.00 90 1006.7
20260507053547 13 27 1.6 3.2 0.00 0.23 0.00 90 1006.8
20260507053029 13 28 0.0 1.6 0.00 0.23 0.00 91 1006.7
20260507052528 13 28 0.0 3.2 0.00 0.23 0.00 91 1006.5
20260507052028 13 26 0.0 3.2 0.00 0.23 0.00 91 1006.4
20260507051528 13 32 0.0 3.2 0.00 0.23 0.00 90 1006.2
20260507051028 13 352 1.6 3.2 0.00 0.23 0.00 90 1006.4
20260507050527 13 336 1.6 3.2 0.00 0.23 0.00 90 1006.3
20260507050048 13 344 1.6 4.8 0.00 0.23 0.00 90 1006.4
20260507045528 14 3 1.6 3.2 0.00 0.23 0.00 91 1006.6
20260507045108 14 19 1.6 4.8 0.00 0.23 0.00 92 1006.5
20260507044527 14 352 1.6 4.8 0.00 0.23 0.00 94 1006.6
20260507044027 14 71 0.0 1.6 0.00 0.23 0.00 94 1006.4
20260507043547 14 0 0.0 3.2 0.00 0.23 0.00 95 1006.3
20260507043027 14 218 1.6 1.6 0.00 0.23 0.00 95 1006.3
20260507042527 14 190 0.0 3.2 0.00 0.23 0.00 95 1006.3
20260507042027 15 185 1.6 4.8 0.03 0.23 0.00 96 1006.4
20260507041549 15 353 1.6 3.2 0.03 0.23 0.00 96 1006.4
20260507041028 15 63 0.0 3.2 0.03 0.23 0.00 97 1006.5
20260507040528 15 76 0.0 3.2 0.00 0.23 0.00 97 1006.7
20260507040108 15 124 0.0 1.6 0.00 0.23 0.00 97 1006.8
20260507035549 15 119 0.0 1.6 0.00 0.23 0.23 97 1006.6
20260507035028 15 119 0.0 1.6 0.00 0.23 0.23 97 1006.5
20260507034548 15 131 0.0 3.2 0.00 0.23 0.23 97 1006.3
20260507034027 15 126 0.0 3.2 0.00 0.23 0.23 97 1006.3
20260507033527 15 271 0.0 3.2 0.00 0.23 0.23 96 1006.1
20260507033047 15 313 0.0 4.8 0.00 0.23 0.23 96 1006.1
20260507032527 15 56 1.6 4.8 0.00 0.23 0.23 96 1006.2
20260507032027 15 187 0.0 4.8 0.00 0.23 0.23 95 1006.0
20260507031527 15 251 1.6 6.4 0.00 0.23 0.23 95 1005.8
20260507031027 15 113 1.6 6.4 0.00 0.23 0.23 95 1005.8
20260507030527 15 190 1.6 4.8 0.00 0.23 0.23 95 1005.8
20260507030029 15 269 0.0 3.2 0.00 0.23 0.23 95 1005.7
20260507025528 15 282 1.6 9.7 0.00 0.23 0.23 95 1005.6
20260507025028 15 205 0.0 9.7 0.00 0.23 0.23 95 1005.6
20260507024528 15 223 1.6 11.3 0.00 0.23 0.23 95 1005.8
20260507024028 15 209 1.6 11.3 0.00 0.23 0.23 95 1005.9
20260507023528 15 216 1.6 4.8 0.00 0.23 0.23 95 1005.9
20260507023028 15 120 0.0 4.8 0.00 0.23 0.23 95 1006.0
20260507022527 15 215 1.6 9.7 0.00 0.23 0.23 95 1005.9
20260507022027 15 204 1.6 4.8 0.00 0.23 0.23 95 1005.8
20260507021527 15 221 1.6 6.4 0.00 0.23 0.23 95 1005.9
20260507021029 15 250 1.6 11.3 0.00 0.23 0.23 96 1005.9
20260507020527 15 202 0.0 4.8 0.00 0.23 0.23 96 1005.9
20260507020027 15 220 0.0 3.2 0.00 0.23 0.23 96 1005.8
20260507015529 15 242 1.6 4.8 0.00 0.23 0.23 96 1005.8
20260507015028 15 249 1.6 4.8 0.00 0.23 0.23 96 1005.9
20260507014528 15 206 1.6 9.7 0.00 0.23 0.23 95 1005.9
20260507014028 15 210 1.6 9.7 0.00 0.23 0.23 96 1005.9
20260507013548 15 198 3.2 9.7 0.00 0.23 0.23 96 1005.9
20260507013028 15 261 1.6 6.4 0.00 0.23 0.23 96 1005.8
20260507012527 14 211 3.2 16.1 0.00 0.23 0.23 96 1006.0
20260507012028 14 210 3.2 12.9 0.00 0.23 0.23 96 1006.0
20260507011527 14 208 1.6 11.3 0.00 0.23 0.23 96 1006.0
20260507011028 14 264 3.2 11.3 0.00 0.23 0.23 96 1006.1
20260507010527 14 232 3.2 14.5 0.00 0.23 0.23 95 1006.1
20260507010027 14 193 3.2 14.5 0.00 0.23 0.23 95 1006.1
20260507005527 14 237 1.6 6.4 0.00 0.23 0.23 95 1006.2
20260507005047 14 177 1.6 11.3 0.00 0.23 0.23 95 1006.1
20260507004527 14 233 1.6 9.7 0.00 0.23 0.23 95 1006.2
20260507004027 14 214 3.2 9.7 0.00 0.23 0.23 95 1006.1
20260507003526 14 243 1.6 11.3 0.00 0.23 0.23 95 1006.1
20260507003029 14 244 1.6 11.3 0.00 0.23 0.23 95 1006.1
20260507002528 14 177 3.2 11.3 0.03 0.23 0.23 96 1006.2
20260507002028 14 190 3.2 9.7 0.03 0.23 0.23 95 1006.2
20260507001528 14 211 3.2 14.5 0.05 0.23 0.23 95 1006.1
20260507001028 14 192 3.2 14.5 0.05 0.23 0.23 95 1005.9
20260507000528 15 198 3.2 11.3 0.08 0.23 0.23 95 1005.8
20260507000028 15 210 3.2 11.3 0.05 0.20 0.20 95 1005.7
20260506235527 15 211 4.8 16.1 0.05 0.20 0.20 95 1005.8
20260506235027 15 199 3.2 11.3 0.05 0.20 0.20 95 1005.8
20260506234547 15 211 3.2 14.5 0.05 0.20 0.20 95 1005.8
20260506234027 15 210 1.6 9.7 0.05 0.20 0.20 95 1005.9
20260506233527 15 187 1.6 11.3 0.05 0.20 0.20 95 1005.8
20260506233027 15 224 3.2 12.9 0.05 0.20 0.20 95 1005.7
20260506232527 15 167 1.6 12.9 0.05 0.20 0.20 94 1005.8
20260506232026 15 238 1.6 11.3 0.03 0.18 0.18 94 1005.7
20260506231528 15 178 1.6 9.7 0.03 0.18 0.18 94 1005.7
20260506231028 15 195 1.6 9.7 0.00 0.15 0.15 93 1005.8
20260506230528 15 182 1.6 11.3 0.00 0.15 0.15 94 1005.8
20260506230028 15 214 3.2 11.3 0.00 0.15 0.15 94 1005.7
20260506225528 15 205 1.6 14.5 0.00 0.15 0.15 93 1005.8
20260506225027 15 201 4.8 22.5 0.03 0.15 0.15 94 1005.9
20260506224527 15 206 3.2 11.3 0.03 0.15 0.15 94 1005.9
20260506224027 15 219 3.2 14.5 0.05 0.15 0.15 94 1005.9
20260506223527 15 165 3.2 17.7 0.05 0.15 0.15 94 1006.0
20260506223027 15 221 1.6 17.7 0.05 0.15 0.15 94 1006.0
20260506222527 15 180 4.8 17.7 0.05 0.15 0.15 94 1006.1
20260506222029 15 187 4.8 16.1 0.05 0.15 0.15 94 1006.2
20260506221528 15 182 3.2 16.1 0.05 0.15 0.15 94 1006.3
20260506221028 15 207 3.2 14.5 0.05 0.15 0.15 93 1006.2
20260506220529 15 210 3.2 14.5 0.05 0.15 0.15 93 1006.3
20260506220028 15 215 3.2 16.1 0.03 0.13 0.13 92 1006.2
20260506215528 15 175 4.8 17.7 0.03 0.13 0.13 91 1006.3
20260506215048 16 221 1.6 9.7 0.03 0.13 0.13 90 1006.5
20260506214528 16 193 3.2 11.3 0.00 0.13 0.13 89 1006.6
20260506214028 16 200 4.8 24.1 0.00 0.10 0.10 87 1006.7
20260506213547 16 197 6.4 24.1 0.00 0.10 0.10 87 1006.6
20260506213027 16 208 3.2 17.7 0.00 0.10 0.10 88 1006.7
20260506212527 16 204 3.2 9.7 0.03 0.10 0.10 88 1006.6
20260506212027 16 166 1.6 9.7 0.03 0.10 0.10 88 1006.6
20260506211527 16 198 3.2 11.3 0.03 0.10 0.10 88 1006.7
20260506211027 16 236 1.6 6.4 0.03 0.10 0.10 88 1006.6
20260506210529 16 248 1.6 14.5 0.03 0.10 0.10 88 1006.7
20260506210030 16 158 1.6 12.9 0.03 0.10 0.10 88 1006.7
20260506205528 16 224 1.6 9.7 0.03 0.10 0.10 88 1006.8
20260506205028 16 223 4.8 16.1 0.03 0.10 0.10 87 1006.8
20260506204548 16 200 1.6 14.5 0.05 0.10 0.10 87 1006.9
20260506204028 16 164 3.2 11.3 0.05 0.10 0.10 86 1007.0
20260506203528 16 188 3.2 16.1 0.05 0.10 0.10 86 1007.0
20260506203028 16 225 1.6 11.3 0.05 0.10 0.10 85 1007.0
20260506202528 16 200 3.2 11.3 0.05 0.10 0.10 85 1007.0
20260506202028 16 202 3.2 16.1 0.08 0.10 0.10 86 1006.9
20260506201528 16 183 1.6 11.3 0.08 0.10 0.10 86 1006.9
20260506201028 16 201 1.6 6.4 0.10 0.10 0.10 85 1006.7
20260506200528 17 149 3.2 11.3 0.10 0.10 0.10 85 1006.8
20260506200028 17 129 1.6 9.7 0.10 0.10 0.10 85 1006.7
20260506195528 17 201 3.2 11.3 0.08 0.08 0.08 84 1006.8
20260506195027 17 185 3.2 17.7 0.08 0.08 0.08 83 1006.9
20260506194527 17 192 3.2 11.3 0.08 0.08 0.08 83 1006.9
20260506194047 17 185 1.6 6.4 0.05 0.05 0.05 82 1007.1
20260506193529 18 192 1.6 6.4 0.05 0.05 0.05 80 1007.0
20260506193029 18 235 1.6 11.3 0.05 0.05 0.05 77 1007.0
20260506192527 18 221 3.2 22.5 0.03 0.03 0.03 74 1007.0
20260506192028 18 215 3.2 22.5 0.03 0.03 0.03 73 1007.0
20260506191528 19 265 1.6 9.7 0.00 0.00 0.00 71 1007.0
20260506191027 20 227 4.8 12.9 0.00 0.00 0.00 67 1006.9
20260506190527 20 278 3.2 14.5 0.00 0.00 0.00 65 1006.9
20260506190027 20 257 3.2 11.3 0.00 0.00 0.00 64 1007.0
20260506185529 20 242 3.2 22.5 0.00 0.00 0.00 63 1007.0
20260506185029 20 226 6.4 22.5 0.00 0.00 0.00 62 1007.1
20260506184528 20 252 6.4 22.5 0.00 0.00 0.00 61 1007.0
20260506184029 21 149 3.2 24.1 0.00 0.00 0.00 60 1007.0
20260506183528 21 232 4.8 37.0 0.00 0.00 0.00 58 1007.0
20260506183028 21 234 3.2 11.3 0.00 0.00 0.00 56 1007.0
20260506182528 21 198 4.8 20.9 0.00 0.00 0.00 55 1007.1
20260506182028 21 215 3.2 20.9 0.00 0.00 0.00 54 1007.1
20260506181528 22 75 1.6 4.8 0.00 0.00 0.00 54 1007.1
20260506181048 22 232 1.6 6.4 0.00 0.00 0.00 53 1007.0
20260506180528 22 286 3.2 17.7 0.00 0.00 0.00 53 1007.2
20260506180027 22 211 4.8 20.9 0.00 0.00 0.00 52 1007.3